Location: Bemmer
(51.5498°N, 5.6249°E)
Time: 12:53:14
(UTC+00:00)

Cosmos 2322 - Pass Details

Date: 03 March 2021
Orbit: 842 x 853 km, 71.0° (Epoch: 17 April)

Event Time Altitude Azimuth Distance (km) Brightness Sun altitude
Rises 19:44:44 0° 204° (SSW) 3,411 6.9 -22.8°
Reaches altitude 10° 19:47:10 10° 203° (SSW) 2,479 6.2 -23.1°
Maximum altitude 19:52:52 80° 118° (ESE) 871 3.6 -23.9°
Drops below altitude 10° 19:58:36 10° 32° (NNE) 2,492 6.0 -24.8°
Sets 20:01:04 0° 31° (NNE) 3,430 6.8 -25.1°
